{"data":{"norad_id":59759,"epoch":"2026-05-24T20:08:42.007776Z","epoch_age_seconds":84969,"freshness":"FRESH","line1":"1 59759U 24091G   26144.83937509  .00000157  00000+0  61539-5 0  9993","line2":"2 59759  53.1591 190.8594 0000953  73.2678 286.8445 15.69709351117470","mean_motion":15.69709351,"eccentricity":9.53e-5,"inclination_deg":53.1591,"raan_deg":190.8594,"arg_perigee_deg":73.2678,"mean_anomaly_deg":286.8445,"bstar":6.1539e-6,"rev_number":11747,"period_min":91.736728145413,"perigee_km":359.08648901759,"apogee_km":360.3707262024,"semimajor_km":6737.86560761,"source":"CELESTRAK","updated_at":"2026-05-25T13:38:19.056773Z"}}